[[{"header":{"parameterUnit":"m.s-1","parameterCategory":2,"la1":30.2991,"la2":30.254,"lo1":-89.0895,"lo2":-89.0444,"dy":0.0017,"dx":0.0017,"nx":28,"ny":28,"refTime":"2024-02-17T03:00:00:Z","depth":"0","parameterNumber":2,"parameterNumberName":"U-component_of_CURRENTS"},"data":[0,0,0,0,0,0,0,0,0,0,0,0,0,0,0,0,0,0,0,0,0,0,0,0,0,0,0,0,0,0,0,0,0,0,0,0,0,0,0,0,0,0,0,0,0,0,0,0,0,0,0,0,0,0,0,0,0,0,-0.2618,-0.2618,0,-0.2633,-0.2633,-0.2633,-0.2608,-0.2607,-0.2607,-0.2606,-0.2605,-0.2605,-0.2606,0,0,0,0,0,0,0,0,0,0,0,0,0,-0.258,-0.2581,-0.2618,-0.2618,-0.2619,-0.2633,-0.2633,-0.2633,-0.2608,-0.2607,-0.2607,-0.2606,-0.2605,-0.2605,-0.2606,0,0,0,0,0,0,0,0,0,0,0,0,0,-0.2594,-0.2581,-0.2618,-0.2609,-0.2609,-0.2633,-0.2633,-0.2633,-0.2608,-0.2607,-0.2606,-0.2605,-0.2604,-0.2605,-0.2606,-0.2632,0,0,-0.2609,-0.2609,0,0,0,0,0,0,0,0,-0.2593,-0.2595,-0.261,-0.261,-0.261,-0.2619,-0.2619,-0.2632,-0.2609,-0.2607,-0.2606,-0.2605,-0.261,-0.261,-0.2613,-0.2632,-0.2632,-0.2609,-0.2609,-0.261,-0.261,0,0,0,0,0,0,0,-0.2592,-0.2595,-0.2622,-0.2611,-0.261,-0.2609,-0.261,-0.2621,-0.2612,-0.2607,-0.2606,-0.261,-0.2609,-0.2612,-0.2613,-0.2632,-0.2609,-0.261,-0.261,-0.2611,-0.2652,-0.2653,0,0,0,0,0,0,-0.2595,-0.2594,-0.2621,-0.2622,-0.2601,-0.2611,-0.2611,-0.2616,-0.2612,-0.2612,-0.2611,-0.2609,-0.2611,-0.2612,-0.2613,-0.2628,-0.261,-0.2611,-0.2611,-0.2652,-0.2653,-0.2653,0,0,0,0,0,0,-0.2594,-0.2597,-0.2621,-0.261,-0.2613,-0.2613,-0.2618,-0.2616,-0.2616,-0.2616,-0.2614,-0.2611,-0.261,-0.2611,-0.262,-0.2628,-0.2611,-0.2612,-0.2651,-0.2652,-0.2653,-0.2668,0,0,0,0,0,0,-0.2593,-0.2597,-0.2597,-0.261,-0.2614,-0.2636,-0.2619,-0.2618,-0.2621,-0.2619,-0.2616,-0.2615,-0.261,-0.2619,-0.2621,-0.2629,-0.2613,-0.265,-0.2652,-0.2653,-0.2667,-0.267,-0.2672,0,0,0,0,0,-0.2592,-0.2598,-0.2597,-0.26,-0.2615,-0.2637,-0.2638,-0.2633,-0.2622,-0.2627,-0.2622,-0.2615,-0.2627,-0.2621,-0.2623,-0.2631,-0.265,-0.2651,-0.2653,-0.2666,-0.2669,-0.2672,0,0,0,0,0,0,-0.2581,-0.2597,-0.2596,-0.2606,-0.2621,-0.2633,-0.2635,-0.2636,-0.2637,-0.263,-0.2625,-0.2625,-0.2636,-0.2635,-0.2627,-0.2647,-0.2637,-0.2639,-0.2646,-0.2649,-0.2651,-0.2653,-0.2613,0,0,0,0,0,-0.2581,-0.2587,-0.2606,-0.2613,-0.2621,-0.2629,-0.2635,-0.2636,-0.2641,-0.264,-0.2639,-0.2639,-0.2646,-0.2647,-0.2653,-0.2667,-0.2657,-0.2673,-0.2676,-0.2678,-0.2681,-0.2672,-0.2674,-0.2658,-0.2658,-0.2658,0,0,-0.2578,-0.2588,-0.2589,-0.2611,-0.2617,-0.2638,-0.2629,-0.2641,-0.2655,-0.2642,-0.2652,-0.265,-0.2653,-0.2664,-0.2669,-0.2662,-0.2676,-0.2679,-0.2681,-0.2683,-0.2674,-0.2675,-0.2676,-0.2658,-0.2658,-0.2658,0,0,-0.258,-0.2584,-0.2593,-0.261,-0.2629,-0.2639,-0.2645,-0.2661,-0.2662,-0.2678,-0.267,-0.2672,-0.2684,-0.2684,-0.2687,-0.2709,-0.2692,-0.2711,-0.2721,-0.2712,-0.2713,-0.2714,-0.2698,-0.2697,-0.2708,-0.2708,-0.2708,0,-0.2576,-0.2588,-0.2599,-0.2619,-0.2631,-0.2642,-0.266,-0.2673,-0.2688,-0.2691,-0.2681,-0.2694,-0.2694,-0.2708,-0.2712,-0.2714,-0.2702,-0.2709,-0.2715,-0.2715,-0.2716,-0.2699,-0.2698,-0.2709,-0.2709,-0.2709,-0.2709,0,-0.2586,-0.2602,-0.261,-0.2636,-0.2654,-0.2669,-0.2694,-0.2707,-0.2708,-0.2716,-0.2726,-0.2724,-0.2727,-0.273,-0.2728,-0.2736,-0.2724,-0.272,-0.2705,-0.2718,-0.27,-0.2698,-0.2711,-0.271,-0.271,-0.271,0,0,-0.2559,-0.2607,-0.2608,-0.2623,-0.2661,-0.2676,-0.2705,-0.2729,-0.2741,-0.2749,-0.2757,-0.2767,-0.2757,-0.2759,-0.2755,-0.275,-0.2742,-0.2737,-0.2736,-0.2716,-0.2714,-0.2727,-0.2726,-0.2735,-0.2735,-0.2735,-0.2698,0,-0.2559,-0.2591,-0.2619,-0.265,-0.2667,-0.2697,-0.2723,-0.2747,-0.276,-0.2775,-0.2773,-0.278,-0.2771,-0.2768,-0.2763,-0.2753,-0.274,-0.2752,-0.2709,-0.2707,-0.2714,-0.2726,-0.2658,-0.2622,-0.2696,-0.2696,-0.2696,0,-0.2555,-0.2575,-0.2602,-0.2652,-0.2662,-0.2684,-0.2717,-0.2745,-0.2776,-0.2786,-0.2793,-0.2794,-0.2796,-0.2782,-0.2761,-0.2768,-0.2742,-0.2728,-0.2726,-0.2733,-0.2718,-0.2623,-0.2616,-0.2577,-0.2693,-0.2693,-0.2694,0,-0.2512,-0.2566,-0.258,-0.2597,-0.2654,-0.2667,-0.2695,-0.2735,-0.2752,-0.2787,-0.2797,-0.2803,-0.2798,-0.2778,-0.276,-0.2754,-0.2735,-0.2719,-0.2703,-0.2702,-0.2635,-0.263,-0.2583,-0.2695,-0.2695,-0.2695,-0.2695,0,-0.2496,-0.2508,-0.256,-0.2565,-0.2583,-0.2636,-0.2655,-0.2693,-0.2733,-0.2755,-0.279,-0.2803,-0.2796,-0.279,-0.2765,-0.2739,-0.2734,-0.2709,-0.2698,-0.2639,-0.2635,-0.2592,-0.2579,-0.2694,-0.2694,-0.2694,-0.2694,0,-0.2441,-0.2479,-0.2499,-0.2548,-0.2562,-0.2571,-0.2624,-0.2641,-0.2694,-0.2724,-0.2734,-0.2787,-0.2795,-0.279,-0.2763,-0.2742,-0.2669,-0.2706,-0.2641,-0.2625,-0.258,-0.2571,-0.2494,-0.242,-0.2674,-0.2674,-0.2675,0,-0.2415,-0.2417,-0.2464,-0.2468,-0.2486,-0.251,-0.2529,-0.2601,-0.2629,-0.2714,-0.2726,-0.2761,-0.2785,-0.2773,-0.2764,-0.2734,-0.2657,-0.2628,-0.2611,-0.2576,-0.2557,-0.2523,-0.2463,-0.2514,-0.2513,-0.2512,-0.2512,0,-0.2343,-0.2359,-0.2367,-0.2386,-0.2405,-0.2424,-0.2464,-0.2484,-0.2576,-0.2619,-0.268,-0.2711,-0.2761,-0.2735,-0.2724,-0.2681,-0.2557,-0.2609,-0.2575,-0.244,-0.2393,-0.2318,-0.2541,-0.2503,-0.2504,-0.2504,-0.2505,-0.2505,-0.227,-0.2262,-0.2274,-0.228,-0.2304,-0.2314,-0.2298,-0.2379,-0.2414,-0.249,-0.2585,-0.266,-0.2672,-0.2676,-0.2635,-0.2544,-0.2532,-0.2442,-0.2434,-0.2405,-0.2335,-0.2554,-0.2514,-0.2515,-0.2515,-0.2516,-0.2517,0,-0.2167,-0.2164,-0.2169,-0.217,-0.2148,-0.2196,-0.2229,-0.2208,-0.2235,-0.2408,-0.2469,-0.2605,-0.2544,-0.2554,-0.2503,-0.2397,-0.2299,-0.229,-0.2202,-0.2148,-0.2337,-0.2333,-0.2247,-0.2247,-0.2247,-0.2248,-0.2248,-0.2248,-0.2107,-0.2064,-0.2068,-0.1991,-0.1994,-0.1922,-0.1912,-0.1932,-0.2027,-0.2184,-0.2376,-0.2564,-0.2563,-0.2573,-0.2404,-0.2268,-0.2137,-0.2072,-0.2048,-0.2176,-0.2188,-0.22,-0.2193,-0.208,-0.208,-0.1792,-0.179,-0.1788]},{"header":{"parameterUnit":"m.s-1","parameterCategory":2,"la1":30.2991,"la2":30.254,"lo1":-89.0895,"lo2":-89.0444,"dy":0.0017,"dx":0.0017,"nx":28,"ny":28,"refTime":"2024-02-17T03:00:00:Z","depth":"0","parameterNumber":3,"parameterNumberName":"V-component_of_CURRENTS"},"data":[0,0,0,0,0,0,0,0,0,0,0,0,0,0,0,0,0,0,0,0,0,0,0,0,0,0,0,0,0,0,0,0,0,0,0,0,0,0,0,0,0,0,0,0,0,0,0,0,0,0,0,0,0,0,0,0,0,0,-0.052,-0.0519,0,-0.0454,-0.0453,-0.0452,-0.0406,-0.0406,-0.0406,-0.0405,-0.0314,-0.0312,-0.031,0,0,0,0,0,0,0,0,0,0,0,0,0,-0.0578,-0.0577,-0.052,-0.0519,-0.0518,-0.0454,-0.0453,-0.0452,-0.0406,-0.0406,-0.0405,-0.0405,-0.0315,-0.0312,-0.031,0,0,0,0,0,0,0,0,0,0,0,0,0,-0.0536,-0.0577,-0.052,-0.0488,-0.0484,-0.0454,-0.0453,-0.0452,-0.0406,-0.0406,-0.0405,-0.0405,-0.0316,-0.0313,-0.031,-0.03,0,0,-0.03,-0.0298,0,0,0,0,0,0,0,0,-0.0539,-0.0534,-0.0493,-0.049,-0.0486,-0.0438,-0.044,-0.04,-0.0406,-0.0436,-0.0405,-0.0405,-0.0354,-0.0347,-0.0336,-0.0296,-0.0292,-0.03,-0.0298,-0.0296,-0.0295,0,0,0,0,0,0,0,-0.0542,-0.0537,-0.0494,-0.0493,-0.0488,-0.0467,-0.0461,-0.0432,-0.0398,-0.0433,-0.043,-0.0423,-0.0351,-0.0339,-0.0334,-0.029,-0.03,-0.0297,-0.0295,-0.0294,-0.0235,-0.0235,0,0,0,0,0,0,-0.0552,-0.054,-0.0496,-0.0492,-0.0512,-0.0466,-0.0459,-0.0454,-0.0398,-0.039,-0.0423,-0.0421,-0.0345,-0.0337,-0.033,-0.0315,-0.0296,-0.0293,-0.0292,-0.0235,-0.0235,-0.0235,0,0,0,0,0,0,-0.0554,-0.0549,-0.0498,-0.0514,-0.0506,-0.0466,-0.046,-0.0453,-0.044,-0.0391,-0.0382,-0.0418,-0.0344,-0.0335,-0.0308,-0.0311,-0.0292,-0.0289,-0.0234,-0.0235,-0.0235,-0.0284,0,0,0,0,0,0,-0.0556,-0.055,-0.0552,-0.0515,-0.0506,-0.0486,-0.046,-0.0452,-0.0437,-0.0433,-0.0384,-0.0375,-0.0343,-0.0313,-0.0305,-0.0306,-0.0287,-0.0234,-0.0234,-0.0235,-0.0282,-0.0286,-0.029,0,0,0,0,0,-0.0558,-0.0563,-0.0553,-0.0547,-0.0509,-0.0486,-0.048,-0.0449,-0.0437,-0.0435,-0.0403,-0.0376,-0.0311,-0.0311,-0.0301,-0.0301,-0.0233,-0.0234,-0.0235,-0.028,-0.0285,-0.029,0,0,0,0,0,0,-0.0587,-0.0557,-0.0546,-0.054,-0.0518,-0.0478,-0.0474,-0.0454,-0.0427,-0.0424,-0.0379,-0.0368,-0.0347,-0.0319,-0.032,-0.0287,-0.0269,-0.0268,-0.0307,-0.0311,-0.0315,-0.0321,-0.0284,0,0,0,0,0,-0.0596,-0.0593,-0.056,-0.0557,-0.0548,-0.0514,-0.0501,-0.0482,-0.0452,-0.0439,-0.0405,-0.0371,-0.0343,-0.0324,-0.0296,-0.0277,-0.0246,-0.0271,-0.0275,-0.0279,-0.0278,-0.0236,-0.0236,-0.0238,-0.0238,-0.0238,0,0,-0.0607,-0.059,-0.0588,-0.0563,-0.0544,-0.0538,-0.0505,-0.0491,-0.0483,-0.0434,-0.0415,-0.0384,-0.0342,-0.0321,-0.0309,-0.0297,-0.0264,-0.028,-0.0283,-0.028,-0.0236,-0.0236,-0.0236,-0.0238,-0.0238,-0.0238,0,0,-0.0631,-0.0613,-0.0621,-0.0607,-0.0583,-0.0559,-0.0558,-0.0523,-0.0504,-0.0484,-0.0448,-0.0418,-0.0376,-0.0343,-0.0322,-0.0331,-0.0289,-0.0325,-0.0343,-0.0303,-0.0302,-0.0301,-0.027,-0.0265,-0.0323,-0.0323,-0.0323,0,-0.0647,-0.065,-0.0619,-0.0624,-0.0616,-0.0573,-0.058,-0.0554,-0.0514,-0.0499,-0.0486,-0.0419,-0.0385,-0.035,-0.0354,-0.0338,-0.0312,-0.033,-0.0308,-0.0306,-0.0304,-0.0272,-0.0266,-0.0326,-0.0325,-0.0325,-0.0325,0,-0.0675,-0.068,-0.0684,-0.0675,-0.066,-0.066,-0.0622,-0.0605,-0.0578,-0.0547,-0.0509,-0.046,-0.0418,-0.0405,-0.0381,-0.0352,-0.0338,-0.0321,-0.0297,-0.0307,-0.0272,-0.0266,-0.0329,-0.0328,-0.0328,-0.0327,0,0,-0.071,-0.0706,-0.0709,-0.0718,-0.0689,-0.0683,-0.0666,-0.0636,-0.0625,-0.0578,-0.0557,-0.0504,-0.047,-0.0444,-0.0405,-0.0369,-0.0337,-0.0344,-0.034,-0.0314,-0.0253,-0.0221,-0.0211,-0.0315,-0.0314,-0.0314,-0.0237,0,-0.0744,-0.0771,-0.0752,-0.0774,-0.0785,-0.0742,-0.073,-0.0695,-0.0656,-0.0623,-0.0557,-0.0524,-0.0486,-0.0468,-0.0424,-0.0357,-0.0321,-0.0359,-0.0245,-0.0242,-0.0213,-0.0203,-0.0213,-0.0144,-0.023,-0.0229,-0.0228,0,-0.0784,-0.0795,-0.0826,-0.0829,-0.0828,-0.083,-0.0802,-0.0784,-0.072,-0.0688,-0.0632,-0.0577,-0.051,-0.0482,-0.0364,-0.0391,-0.0329,-0.0277,-0.0272,-0.0219,-0.0198,-0.0145,-0.0128,-0.0049,-0.0218,-0.0219,-0.0219,0,-0.0833,-0.085,-0.0878,-0.088,-0.0869,-0.0873,-0.086,-0.0808,-0.0794,-0.0728,-0.0708,-0.0613,-0.0568,-0.0472,-0.0356,-0.036,-0.0228,-0.0218,-0.0132,-0.0129,-0.0103,-0.0099,0.0006,-0.0141,-0.0141,-0.0142,-0.0142,0,-0.0885,-0.0908,-0.0908,-0.0928,-0.0959,-0.0925,-0.0937,-0.0909,-0.086,-0.0847,-0.0748,-0.0714,-0.0564,-0.0465,-0.0364,-0.0221,-0.0229,-0.0129,-0.0102,-0.0121,-0.012,-0.0021,0.0036,-0.0139,-0.0139,-0.014,-0.014,0,-0.0944,-0.0941,-0.0978,-0.0983,-0.0991,-0.1012,-0.1005,-0.1007,-0.0949,-0.0928,-0.0909,-0.0784,-0.065,-0.0496,-0.0333,-0.0233,-0.0039,-0.0056,-0.009,-0.0069,0.0087,0.0141,0.034,0.0359,0.0055,0.0056,0.0057,0,-0.0977,-0.1003,-0.1034,-0.1064,-0.1075,-0.1095,-0.1111,-0.1066,-0.1061,-0.0973,-0.097,-0.083,-0.0737,-0.0473,-0.0268,-0.007,0.0012,0.0041,0.0036,0.0104,0.0184,0.0249,0.0254,0.0047,0.0048,0.0048,0.0049,0,-0.1038,-0.1047,-0.1079,-0.1145,-0.1181,-0.1211,-0.1225,-0.1234,-0.117,-0.1139,-0.1071,-0.0988,-0.0715,-0.0491,-0.021,-0.008,0.0112,0.0063,0.0147,0.0205,0.0271,0.0297,-0.0019,0.0056,0.0055,0.0055,0.0054,0.0054,-0.1079,-0.1121,-0.1166,-0.123,-0.1273,-0.1318,-0.1345,-0.134,-0.1335,-0.1271,-0.1168,-0.1029,-0.0676,-0.0279,-0.0135,0.0174,0.0184,0.0248,0.0313,0.0375,0.0391,0.0089,0.0187,0.0187,0.0187,0.0187,0.0187,0,-0.1132,-0.118,-0.1248,-0.132,-0.1382,-0.138,-0.1415,-0.1428,-0.1432,-0.1327,-0.1242,-0.0866,-0.0545,-0.0198,0.0259,0.041,0.0436,0.0483,0.0554,0.0545,0.0282,0.0274,0.038,0.038,0.038,0.038,0.038,0.038,-0.1161,-0.124,-0.1281,-0.1399,-0.1448,-0.1515,-0.1535,-0.1537,-0.1474,-0.1312,-0.109,-0.0917,-0.0376,0.0341,0.0695,0.0704,0.0788,0.0805,0.0852,0.0649,0.063,0.0613,0.0617,0.0793,0.0794,0.1061,0.1064,0.1066]}],[{"header":{"parameterUnit":"m.s-1","parameterCategory":2,"la1":30.2991,"la2":30.254,"lo1":-89.0895,"lo2":-89.0444,"dy":0.0017,"dx":0.0017,"nx":28,"ny":28,"refTime":"2024-02-17T03:00:00:Z","depth":"2","parameterNumber":2,"parameterNumberName":"U-component_of_CURRENTS"},"data":[0,0,0,0,0,0,0,0,0,0,0,0,0,0,0,0,0,0,0,0,0,0,0,0,0,0,0,0,0,0,0,0,0,0,0,0,0,0,0,0,0,0,0,0,0,0,0,0,0,0,0,0,0,0,0,0,0,0,-0.258,-0.258,0,-0.2595,-0.2595,-0.2595,-0.2573,-0.2572,-0.2571,-0.2571,-0.2571,-0.2571,-0.2572,0,0,0,0,0,0,0,0,0,0,0,0,0,-0.2542,-0.2543,-0.258,-0.258,-0.2581,-0.2595,-0.2595,-0.2595,-0.2573,-0.2572,-0.2571,-0.2571,-0.2571,-0.2571,-0.2572,0,0,0,0,0,0,0,0,0,0,0,0,0,-0.2556,-0.2543,-0.258,-0.2573,-0.2572,-0.2595,-0.2595,-0.2595,-0.2573,-0.2572,-0.2571,-0.257,-0.257,-0.2571,-0.2572,-0.2596,0,0,-0.2575,-0.2575,0,0,0,0,0,0,0,0,-0.2556,-0.2558,-0.2573,-0.2573,-0.2573,-0.2583,-0.2582,-0.2595,-0.2573,-0.2571,-0.2571,-0.257,-0.2575,-0.2576,-0.2578,-0.2596,-0.2596,-0.2575,-0.2575,-0.2576,-0.2576,0,0,0,0,0,0,0,-0.2555,-0.2557,-0.2584,-0.2574,-0.2574,-0.2572,-0.2573,-0.2584,-0.2576,-0.2571,-0.257,-0.2575,-0.2575,-0.2577,-0.2578,-0.2596,-0.2575,-0.2576,-0.2576,-0.2576,-0.2618,-0.2619,0,0,0,0,0,0,-0.2557,-0.2556,-0.2584,-0.2585,-0.2564,-0.2574,-0.2575,-0.2579,-0.2576,-0.2576,-0.2576,-0.2574,-0.2576,-0.2577,-0.2578,-0.2594,-0.2576,-0.2577,-0.2577,-0.2618,-0.2618,-0.2619,0,0,0,0,0,0,-0.2556,-0.2559,-0.2583,-0.2572,-0.2575,-0.2576,-0.2581,-0.258,-0.258,-0.2581,-0.2579,-0.2576,-0.2576,-0.2577,-0.2586,-0.2595,-0.2577,-0.2578,-0.2617,-0.2618,-0.2619,-0.2635,0,0,0,0,0,0,-0.2555,-0.2559,-0.256,-0.2572,-0.2576,-0.2598,-0.2582,-0.2581,-0.2586,-0.2583,-0.2581,-0.258,-0.2575,-0.2585,-0.2587,-0.2595,-0.2578,-0.2616,-0.2617,-0.2618,-0.2634,-0.2636,-0.2639,0,0,0,0,0,-0.2554,-0.256,-0.256,-0.2563,-0.2578,-0.2599,-0.2601,-0.2596,-0.2587,-0.2592,-0.2587,-0.258,-0.2593,-0.2586,-0.2589,-0.2597,-0.2616,-0.2617,-0.2618,-0.2633,-0.2636,-0.2639,0,0,0,0,0,0,-0.2544,-0.256,-0.2559,-0.2569,-0.2584,-0.2596,-0.2598,-0.26,-0.2601,-0.2595,-0.259,-0.259,-0.2602,-0.26,-0.2593,-0.2613,-0.2603,-0.2605,-0.2613,-0.2616,-0.2618,-0.262,-0.2579,0,0,0,0,0,-0.2544,-0.2549,-0.2569,-0.2576,-0.2584,-0.2592,-0.2598,-0.26,-0.2606,-0.2605,-0.2605,-0.2605,-0.2612,-0.2613,-0.2619,-0.2633,-0.2623,-0.264,-0.2642,-0.2644,-0.2648,-0.2639,-0.2641,-0.2623,-0.2623,-0.2623,0,0,-0.2541,-0.255,-0.2553,-0.2574,-0.2581,-0.2601,-0.2592,-0.2606,-0.2619,-0.2606,-0.2617,-0.2616,-0.2618,-0.263,-0.2635,-0.2628,-0.2643,-0.2646,-0.2648,-0.265,-0.2641,-0.2642,-0.2644,-0.2624,-0.2624,-0.2624,0,0,-0.2543,-0.2548,-0.2556,-0.2574,-0.2593,-0.2603,-0.2609,-0.2625,-0.2627,-0.2643,-0.2636,-0.2639,-0.2651,-0.2651,-0.2654,-0.2676,-0.2659,-0.2678,-0.2689,-0.2681,-0.2682,-0.2683,-0.2667,-0.2666,-0.2676,-0.2676,-0.2676,0,-0.254,-0.2552,-0.2563,-0.2582,-0.2594,-0.2606,-0.2624,-0.2637,-0.2653,-0.2656,-0.2647,-0.266,-0.2661,-0.2674,-0.268,-0.2681,-0.267,-0.2676,-0.2683,-0.2684,-0.2684,-0.2668,-0.2667,-0.2677,-0.2677,-0.2677,-0.2677,0,-0.255,-0.2565,-0.2573,-0.26,-0.2617,-0.2633,-0.2658,-0.2671,-0.2673,-0.2681,-0.2692,-0.2691,-0.2694,-0.2698,-0.2696,-0.2705,-0.2693,-0.2688,-0.2673,-0.2687,-0.2669,-0.2668,-0.2678,-0.2678,-0.2678,-0.2677,0,0,-0.2523,-0.2571,-0.2572,-0.2587,-0.2625,-0.2639,-0.2669,-0.2693,-0.2705,-0.2714,-0.2723,-0.2734,-0.2725,-0.2727,-0.2723,-0.2719,-0.2712,-0.2706,-0.2705,-0.2686,-0.2686,-0.2697,-0.2696,-0.2705,-0.2705,-0.2705,-0.267,0,-0.2524,-0.2556,-0.2583,-0.2614,-0.2631,-0.266,-0.2687,-0.2711,-0.2725,-0.274,-0.2739,-0.2747,-0.2739,-0.2736,-0.2732,-0.2723,-0.271,-0.2722,-0.268,-0.2678,-0.2683,-0.2696,-0.2422,-0.2369,-0.2668,-0.2668,-0.2668,0,-0.252,-0.254,-0.2567,-0.2616,-0.2626,-0.2648,-0.2681,-0.2709,-0.2741,-0.2752,-0.276,-0.2761,-0.2764,-0.2751,-0.2732,-0.2738,-0.2713,-0.27,-0.2698,-0.2703,-0.2687,-0.2406,-0.2355,-0.2666,-0.2666,-0.2666,-0.2666,0,-0.2478,-0.2531,-0.2546,-0.2562,-0.2618,-0.2632,-0.266,-0.27,-0.2718,-0.2754,-0.2764,-0.2771,-0.2767,-0.2748,-0.2732,-0.2725,-0.2708,-0.2692,-0.2674,-0.2674,-0.2431,-0.2411,-0.2669,-0.2669,-0.2669,-0.2669,-0.2669,0,-0.2462,-0.2474,-0.2526,-0.2531,-0.255,-0.2602,-0.2621,-0.266,-0.27,-0.2722,-0.2757,-0.2771,-0.2766,-0.2761,-0.2737,-0.2711,-0.2708,-0.2681,-0.267,-0.2432,-0.2413,-0.2664,-0.2664,-0.2668,-0.2668,-0.2668,-0.2669,0,-0.2408,-0.2446,-0.2465,-0.2515,-0.2529,-0.2538,-0.2591,-0.2608,-0.2662,-0.2693,-0.2703,-0.2756,-0.2765,-0.2761,-0.2736,-0.2714,-0.2692,-0.2678,-0.2407,-0.2368,-0.2655,-0.2656,-0.2645,-0.2645,-0.2645,-0.2646,-0.2646,0,-0.2382,-0.2384,-0.2431,-0.2436,-0.2455,-0.2479,-0.2498,-0.257,-0.2597,-0.2682,-0.2694,-0.273,-0.2747,-0.2736,-0.2665,-0.2618,-0.2694,-0.2384,-0.2338,-0.2664,-0.2655,-0.2656,-0.2657,-0.2,-0.1995,-0.1991,-0.1987,0,-0.2311,-0.2328,-0.2336,-0.2356,-0.2375,-0.2394,-0.2433,-0.2453,-0.2545,-0.258,-0.2641,-0.2664,-0.2657,-0.2498,-0.2465,-0.2404,-0.2376,-0.2304,-0.2672,-0.2091,-0.2065,-0.2054,-0.2073,-0.1949,-0.1953,-0.1956,-0.1958,-0.196,-0.224,-0.2233,-0.2245,-0.2252,-0.2276,-0.2285,-0.2269,-0.2326,-0.2352,-0.2366,-0.2487,-0.244,-0.239,-0.2218,-0.2112,-0.2025,-0.2205,-0.2083,-0.2091,-0.2104,-0.2078,-0.2058,-0.1935,-0.1938,-0.1941,-0.1944,-0.1947,0,-0.2131,-0.2137,-0.2141,-0.2142,-0.2112,-0.2169,-0.22,-0.2143,-0.2132,-0.2178,-0.2185,-0.1948,-0.1838,-0.1823,-0.1616,-0.1609,-0.1526,-0.1551,-0.1403,-0.1442,-0.1477,-0.1415,-0.1097,-0.1095,-0.1093,-0.1091,0,0,-0.207,-0.2024,-0.2027,-0.1947,-0.1958,-0.1871,-0.1859,-0.1811,-0.1797,-0.1718,-0.1681,-0.1763,-0.1794,-0.1446,-0.1349,-0.1201,-0.1315,-0.1139,-0.1813,-0.1679,-0.1711,-0.1771,-0.1721,0,0,0,0,0]},{"header":{"parameterUnit":"m.s-1","parameterCategory":2,"la1":30.2991,"la2":30.254,"lo1":-89.0895,"lo2":-89.0444,"dy":0.0017,"dx":0.0017,"nx":28,"ny":28,"refTime":"2024-02-17T03:00:00:Z","depth":"2","parameterNumber":3,"parameterNumberName":"V-component_of_CURRENTS"},"data":[0,0,0,0,0,0,0,0,0,0,0,0,0,0,0,0,0,0,0,0,0,0,0,0,0,0,0,0,0,0,0,0,0,0,0,0,0,0,0,0,0,0,0,0,0,0,0,0,0,0,0,0,0,0,0,0,0,0,-0.0453,-0.0453,0,-0.0388,-0.0387,-0.0386,-0.0341,-0.0341,-0.0341,-0.0341,-0.0251,-0.0249,-0.0247,0,0,0,0,0,0,0,0,0,0,0,0,0,-0.0511,-0.051,-0.0453,-0.0453,-0.0452,-0.0388,-0.0387,-0.0386,-0.0341,-0.0341,-0.0341,-0.034,-0.0251,-0.0249,-0.0246,0,0,0,0,0,0,0,0,0,0,0,0,0,-0.047,-0.051,-0.0454,-0.0422,-0.0419,-0.0388,-0.0387,-0.0386,-0.0342,-0.0341,-0.0341,-0.034,-0.0252,-0.0249,-0.0246,-0.0235,0,0,-0.0236,-0.0235,0,0,0,0,0,0,0,0,-0.0472,-0.0467,-0.0428,-0.0424,-0.042,-0.0372,-0.0374,-0.0334,-0.0342,-0.0371,-0.0341,-0.034,-0.029,-0.0283,-0.0272,-0.0231,-0.0227,-0.0236,-0.0234,-0.0233,-0.0232,0,0,0,0,0,0,0,-0.0475,-0.047,-0.0427,-0.0427,-0.0422,-0.0401,-0.0395,-0.0366,-0.0333,-0.0368,-0.0365,-0.0358,-0.0287,-0.0275,-0.0269,-0.0226,-0.0236,-0.0233,-0.0231,-0.023,-0.0171,-0.0171,0,0,0,0,0,0,-0.0486,-0.0473,-0.0429,-0.0425,-0.0446,-0.0401,-0.0394,-0.0388,-0.0333,-0.0325,-0.0358,-0.0356,-0.0281,-0.0273,-0.0266,-0.0251,-0.0233,-0.023,-0.0228,-0.0171,-0.0171,-0.0172,0,0,0,0,0,0,-0.0487,-0.0482,-0.0432,-0.0448,-0.044,-0.04,-0.0394,-0.0387,-0.0375,-0.0326,-0.0317,-0.0354,-0.028,-0.0271,-0.0245,-0.0248,-0.0228,-0.0225,-0.017,-0.0171,-0.0171,-0.0221,0,0,0,0,0,0,-0.0489,-0.0483,-0.0486,-0.0448,-0.0439,-0.0419,-0.0394,-0.0386,-0.0372,-0.0368,-0.032,-0.0311,-0.0279,-0.025,-0.0241,-0.0243,-0.0223,-0.017,-0.0171,-0.0171,-0.0219,-0.0223,-0.0227,0,0,0,0,0,-0.0491,-0.0496,-0.0486,-0.0481,-0.0443,-0.042,-0.0413,-0.0383,-0.0372,-0.037,-0.0338,-0.0312,-0.0248,-0.0247,-0.0238,-0.0238,-0.017,-0.017,-0.0171,-0.0217,-0.0222,-0.0227,0,0,0,0,0,0,-0.0521,-0.0491,-0.0479,-0.0474,-0.0452,-0.0412,-0.0409,-0.0389,-0.0362,-0.036,-0.0315,-0.0304,-0.0283,-0.0256,-0.0256,-0.0224,-0.0205,-0.0204,-0.0244,-0.0248,-0.0252,-0.0258,-0.022,0,0,0,0,0,-0.053,-0.0527,-0.0494,-0.0491,-0.0482,-0.0448,-0.0436,-0.0417,-0.0387,-0.0375,-0.0341,-0.0307,-0.0279,-0.026,-0.0232,-0.0213,-0.0182,-0.0208,-0.0212,-0.0216,-0.0215,-0.0172,-0.0172,-0.0174,-0.0174,-0.0174,0,0,-0.0541,-0.0524,-0.0522,-0.0497,-0.0478,-0.0472,-0.044,-0.0426,-0.0418,-0.037,-0.0351,-0.032,-0.0278,-0.0257,-0.0245,-0.0234,-0.0201,-0.0216,-0.022,-0.0217,-0.0173,-0.0173,-0.0173,-0.0175,-0.0174,-0.0174,0,0,-0.0565,-0.0548,-0.0555,-0.0541,-0.0518,-0.0494,-0.0493,-0.0458,-0.044,-0.042,-0.0384,-0.0355,-0.0313,-0.028,-0.0259,-0.0267,-0.0225,-0.0262,-0.0281,-0.024,-0.024,-0.0239,-0.0207,-0.0203,-0.026,-0.026,-0.026,0,-0.0582,-0.0585,-0.0554,-0.0559,-0.0551,-0.0508,-0.0515,-0.049,-0.045,-0.0435,-0.0422,-0.0355,-0.0322,-0.0287,-0.0291,-0.0275,-0.0249,-0.0267,-0.0245,-0.0243,-0.0242,-0.0209,-0.0204,-0.0263,-0.0262,-0.0262,-0.0262,0,-0.061,-0.0615,-0.0619,-0.0609,-0.0595,-0.0595,-0.0557,-0.0541,-0.0514,-0.0483,-0.0446,-0.0397,-0.0355,-0.0343,-0.0319,-0.029,-0.0275,-0.0258,-0.0234,-0.0244,-0.021,-0.0203,-0.0266,-0.0265,-0.0265,-0.0264,0,0,-0.0645,-0.0641,-0.0644,-0.0653,-0.0624,-0.0618,-0.0601,-0.0572,-0.0561,-0.0515,-0.0493,-0.0441,-0.0408,-0.0382,-0.0343,-0.0307,-0.0275,-0.0282,-0.0279,-0.0252,-0.0191,-0.0161,-0.015,-0.0254,-0.0253,-0.0252,-0.0175,0,-0.068,-0.0706,-0.0687,-0.0708,-0.0719,-0.0677,-0.0665,-0.0631,-0.0591,-0.0559,-0.0494,-0.0461,-0.0423,-0.0406,-0.0362,-0.0295,-0.0259,-0.0298,-0.0183,-0.018,-0.0152,-0.0142,-0.0114,-0.0041,-0.0169,-0.0168,-0.0167,0,-0.0719,-0.073,-0.0761,-0.0763,-0.0762,-0.0765,-0.0737,-0.0719,-0.0655,-0.0625,-0.0569,-0.0514,-0.0448,-0.0421,-0.0303,-0.0329,-0.0268,-0.0216,-0.0211,-0.0158,-0.0137,-0.0049,-0.0024,-0.0155,-0.0156,-0.0157,-0.0158,0,-0.0769,-0.0785,-0.0812,-0.0814,-0.0804,-0.0808,-0.0795,-0.0744,-0.0729,-0.0664,-0.0644,-0.055,-0.0506,-0.0411,-0.0295,-0.03,-0.0167,-0.0157,-0.0071,-0.0068,-0.0009,-0.0003,-0.008,-0.008,-0.008,-0.0081,-0.0081,0,-0.082,-0.0843,-0.0843,-0.0862,-0.0894,-0.086,-0.0872,-0.0845,-0.0796,-0.0782,-0.0685,-0.0651,-0.0502,-0.0403,-0.0303,-0.016,-0.0168,-0.0068,-0.0041,-0.0027,-0.0023,-0.0094,-0.0096,-0.0078,-0.0078,-0.0079,-0.0079,0,-0.0878,-0.0876,-0.0913,-0.0917,-0.0926,-0.0947,-0.094,-0.0941,-0.0885,-0.0862,-0.0844,-0.072,-0.0586,-0.0433,-0.027,-0.0172,-0.0042,0.0005,0.0009,0.0035,0.0028,0.0022,0.0112,0.0114,0.0115,0.0116,0.0118,0,-0.0911,-0.0937,-0.0968,-0.0998,-0.1009,-0.103,-0.1045,-0.1001,-0.0995,-0.0907,-0.0903,-0.0763,-0.0666,-0.0403,-0.0185,0.0017,-0.0008,0.0141,0.0141,0.0034,0.0051,0.0042,0.0034,0.0198,0.0199,0.0201,0.0202,0,-0.0972,-0.0982,-0.1012,-0.1079,-0.1114,-0.1143,-0.1157,-0.1165,-0.1101,-0.1064,-0.0995,-0.0908,-0.0622,-0.0366,-0.0082,0.0041,0.0116,0.0175,0.0081,0.0138,0.012,0.0134,0.0123,0.0214,0.0213,0.0212,0.0211,0.0211,-0.1012,-0.1054,-0.1099,-0.1162,-0.1205,-0.1248,-0.1275,-0.1244,-0.123,-0.1122,-0.1047,-0.0859,-0.0608,-0.0173,0.003,0.0241,0.0211,0.0273,0.0267,0.026,0.025,0.0234,0.0348,0.0347,0.0347,0.0346,0.0346,0,-0.1053,-0.1113,-0.1179,-0.125,-0.1296,-0.131,-0.1343,-0.1307,-0.127,-0.1119,-0.0996,-0.0696,-0.0394,-0.0143,0.0206,0.0381,0.0381,0.041,0.0376,0.0364,0.0353,0.0345,0.047,0.0471,0.0471,0.0472,0,0,-0.1079,-0.1152,-0.1191,-0.1299,-0.1358,-0.1394,-0.1413,-0.133,-0.1207,-0.104,-0.0874,-0.0639,-0.0367,-0.0099,0.0139,0.0313,0.0293,0.0342,0.0231,0.0154,0.0141,0.0271,0.0246,0,0,0,0,0]}],[{"header":{"parameterUnit":"m.s-1","parameterCategory":2,"la1":30.2991,"la2":30.254,"lo1":-89.0895,"lo2":-89.0444,"dy":0.0017,"dx":0.0017,"nx":28,"ny":28,"refTime":"2024-02-17T03:00:00:Z","depth":"4","parameterNumber":2,"parameterNumberName":"U-component_of_CURRENTS"},"data":[0,0,0,0,0,0,0,0,0,0,0,0,0,0,0,0,0,0,0,0,0,0,0,0,0,0,0,0,0,0,0,0,0,0,0,0,0,0,0,0,0,0,0,0,0,0,0,0,0,0,0,0,0,0,0,0,0,0,-0.1651,-0.1652,0,-0.1705,-0.1706,-0.1706,-0.1743,-0.1744,-0.1744,-0.1745,-0.181,-0.1811,-0.1812,0,0,0,0,0,0,0,0,0,0,0,0,0,-0.1572,-0.1573,-0.1651,-0.1652,-0.1653,-0.1705,-0.1706,-0.1707,-0.1743,-0.1744,-0.1744,-0.1745,-0.1809,-0.1811,-0.1812,0,0,0,0,0,0,0,0,0,0,0,0,0,-0.1613,-0.1574,-0.1651,-0.1679,-0.1682,-0.1705,-0.1706,-0.1707,-0.1743,-0.1744,-0.1745,-0.1745,-0.1809,-0.1811,-0.1813,-0.1812,0,0,-0.1819,-0.182,0,0,0,0,0,0,0,0,-0.1611,-0.1616,-0.1674,-0.1677,-0.168,-0.172,-0.1702,-0.1743,-0.1743,-0.1718,-0.1745,-0.1745,-0.1781,-0.1786,-0.1792,-0.1815,-0.1818,-0.1819,-0.182,-0.1821,-0.1822,0,0,0,0,0,0,0,-0.1608,-0.1613,-0.1671,-0.1675,-0.1679,-0.1686,-0.1693,-0.171,-0.1744,-0.172,-0.1724,-0.1732,-0.1783,-0.179,-0.1794,-0.1819,-0.1819,-0.1821,-0.1822,-0.1823,-0.1918,-0.1919,0,0,0,0,0,0,-0.1604,-0.1611,-0.1669,-0.1673,-0.1648,-0.1687,-0.1694,-0.1705,-0.1744,-0.1751,-0.1732,-0.1734,-0.1786,-0.1791,-0.1796,-0.1866,-0.1821,-0.1823,-0.1824,-0.1917,-0.1918,-0.192,0,0,0,0,0,0,-0.1602,-0.1609,-0.1667,-0.1644,-0.1652,-0.1688,-0.17,-0.1706,-0.1742,-0.1753,-0.176,-0.1765,-0.1787,-0.1793,-0.1837,-0.1866,-0.1824,-0.1826,-0.1915,-0.1917,-0.1919,-0.1963,0,0,0,0,0,0,-0.16,-0.1608,-0.1628,-0.1644,-0.1654,-0.1701,-0.17,-0.1707,-0.1745,-0.175,-0.1783,-0.1788,-0.1788,-0.1834,-0.1839,-0.1868,-0.1827,-0.1913,-0.1916,-0.1918,-0.1959,-0.1966,-0.1971,0,0,0,0,0,-0.1597,-0.1617,-0.1629,-0.1637,-0.1676,-0.1702,-0.1708,-0.1734,-0.1747,-0.1768,-0.1791,-0.1789,-0.1853,-0.1836,-0.1842,-0.1873,-0.1912,-0.1915,-0.1918,-0.1957,-0.1965,-0.1971,0,0,0,0,0,0,-0.1595,-0.1623,-0.1637,-0.1666,-0.1692,-0.1709,-0.1735,-0.1751,-0.1786,-0.1798,-0.1806,-0.1813,-0.1861,-0.1862,-0.1844,-0.1908,-0.1882,-0.1886,-0.191,-0.1917,-0.1923,-0.1919,-0.1829,0,0,0,0,0,-0.1603,-0.1628,-0.1652,-0.168,-0.1695,-0.1721,-0.1741,-0.1759,-0.1785,-0.1803,-0.1827,-0.1851,-0.1872,-0.1892,-0.191,-0.1947,-0.1931,-0.197,-0.1976,-0.1981,-0.1983,-0.1982,-0.1987,-0.1929,-0.1929,-0.1929,0,0,-0.1611,-0.163,-0.1646,-0.1682,-0.1705,-0.1734,-0.1736,-0.1774,-0.1805,-0.1803,-0.1863,-0.1876,-0.1887,-0.1926,-0.1948,-0.1936,-0.199,-0.1985,-0.1989,-0.1988,-0.1985,-0.1991,-0.1996,-0.1931,-0.1931,-0.1931,0,0,-0.1627,-0.1656,-0.1681,-0.1706,-0.1748,-0.1763,-0.1781,-0.1818,-0.1845,-0.1893,-0.1899,-0.1931,-0.1972,-0.1981,-0.1989,-0.2039,-0.202,-0.2053,-0.2083,-0.2083,-0.2087,-0.209,-0.2075,-0.2077,-0.2057,-0.2057,-0.2057,0,-0.1639,-0.1669,-0.1693,-0.1723,-0.1749,-0.178,-0.1812,-0.1842,-0.1891,-0.1912,-0.1922,-0.1979,-0.1994,-0.2026,-0.2047,-0.2052,-0.2044,-0.2054,-0.2089,-0.2092,-0.2095,-0.2079,-0.208,-0.206,-0.2059,-0.2059,-0.2059,0,-0.1661,-0.1701,-0.1719,-0.1766,-0.1798,-0.1831,-0.1871,-0.1912,-0.1948,-0.1971,-0.2024,-0.2041,-0.207,-0.2085,-0.2085,-0.2119,-0.2103,-0.2094,-0.2067,-0.2103,-0.2084,-0.2085,-0.2063,-0.2062,-0.2061,-0.2061,0,0,-0.1643,-0.172,-0.173,-0.176,-0.1824,-0.1847,-0.1907,-0.1955,-0.199,-0.2039,-0.2077,-0.2119,-0.2128,-0.2137,-0.2143,-0.2151,-0.2168,-0.214,-0.2138,-0.2118,-0.216,-0.2042,-0.2031,-0.2166,-0.2167,-0.2167,-0.2136,0,-0.1655,-0.1712,-0.1751,-0.1814,-0.1844,-0.1895,-0.1943,-0.1994,-0.2038,-0.2084,-0.2107,-0.2147,-0.2148,-0.2167,-0.2177,-0.2173,-0.2173,-0.2176,-0.2134,-0.2132,-0.2017,-0.2029,-0.2169,-0.2137,-0.2137,-0.2137,-0.2137,0,-0.1654,-0.1695,-0.1756,-0.1833,-0.1853,-0.1899,-0.1972,-0.202,-0.2085,-0.2119,-0.2159,-0.2178,-0.2209,-0.22,-0.2204,-0.2209,-0.219,-0.2179,-0.2177,-0.2051,-0.2015,-0.2094,-0.2138,-0.2138,-0.2138,-0.2138,-0.2138,0,-0.1607,-0.1695,-0.1744,-0.1772,-0.1863,-0.1906,-0.1958,-0.2031,-0.2067,-0.2143,-0.217,-0.2207,-0.2227,-0.2221,-0.2211,-0.2212,-0.2199,-0.2189,-0.206,-0.2052,-0.2149,-0.2145,-0.218,-0.218,-0.218,-0.218,-0.218,0,-0.158,-0.1624,-0.1732,-0.1754,-0.1814,-0.1889,-0.1951,-0.201,-0.2081,-0.2114,-0.2184,-0.2199,-0.2235,-0.2234,-0.2217,-0.2135,-0.2199,-0.2059,-0.2034,-0.2168,-0.2167,-0.2148,-0.2145,-0.2179,-0.2179,-0.2179,-0.2179,0,-0.1512,-0.1587,-0.1647,-0.1755,-0.1793,-0.1835,-0.1939,-0.1972,-0.2058,-0.2103,-0.2127,-0.2194,-0.2195,-0.2208,-0.2194,-0.2121,-0.207,-0.2025,-0.2165,-0.2149,-0.1921,-0.1921,-0.1865,-0.1861,-0.1857,-0.1854,-0.1851,0,-0.1478,-0.1504,-0.1629,-0.1665,-0.1719,-0.1796,-0.1841,-0.1946,-0.1977,-0.2078,-0.2081,-0.2125,-0.2154,-0.2028,-0.2065,-0.2007,-0.1986,-0.1936,-0.1929,-0.1906,-0.1889,-0.1894,-0.1899,-0.1845,-0.1844,-0.1843,-0.1842,0,-0.1402,-0.1463,-0.151,-0.1586,-0.165,-0.1702,-0.1778,-0.1785,-0.1894,-0.1993,-0.1977,-0.1962,-0.1959,-0.194,-0.1908,-0.1871,-0.1956,-0.1896,-0.1903,-0.1896,-0.1881,-0.1869,-0.1878,-0.1829,-0.1831,-0.1832,-0.1833,0,-0.1346,-0.1362,-0.1434,-0.1483,-0.156,-0.1578,-0.1635,-0.1667,-0.1707,-0.1827,-0.1818,-0.1872,-0.1943,-0.1868,-0.1843,-0.1795,-0.1765,-0.1692,-0.1709,-0.1724,-0.1692,-0.1654,-0.1501,0,0,0,0,0,-0.1276,-0.1279,-0.1321,-0.137,-0.1441,-0.1476,-0.1575,-0.1634,-0.1747,-0.1692,-0.1746,-0.174,-0.17,-0.1728,-0.1646,-0.1777,-0.1772,-0.1673,-0.1699,-0.1756,-0.1771,-0.1747,0,0,0,0,0,0,-0.1229,-0.1264,-0.1277,-0.1256,-0.1264,-0.1322,-0.1375,-0.1457,-0.1435,-0.1556,-0.1544,-0.1628,-0.1618,-0.1719,-0.1608,-0.1615,-0.1592,-0.1715,-0.1709,-0.1747,-0.1761,-0.1773,-0.1754,0,0,0,0,0]},{"header":{"parameterUnit":"m.s-1","parameterCategory":2,"la1":30.2991,"la2":30.254,"lo1":-89.0895,"lo2":-89.0444,"dy":0.0017,"dx":0.0017,"nx":28,"ny":28,"refTime":"2024-02-17T03:00:00:Z","depth":"4","parameterNumber":3,"parameterNumberName":"V-component_of_CURRENTS"},"data":[0,0,0,0,0,0,0,0,0,0,0,0,0,0,0,0,0,0,0,0,0,0,0,0,0,0,0,0,0,0,0,0,0,0,0,0,0,0,0,0,0,0,0,0,0,0,0,0,0,0,0,0,0,0,0,0,0,0,-0.0128,-0.0128,0,-0.0088,-0.0088,-0.0088,-0.0059,-0.0059,-0.0059,-0.0059,0.0,0.0002,0.0003,0,0,0,0,0,0,0,0,0,0,0,0,0,-0.0151,-0.0151,-0.0128,-0.0128,-0.0127,-0.0089,-0.0088,-0.0087,-0.0059,-0.0059,-0.0059,-0.0059,-0.0,0.0001,0.0003,0,0,0,0,0,0,0,0,0,0,0,0,0,-0.0129,-0.0151,-0.0128,-0.0109,-0.0107,-0.0089,-0.0088,-0.0087,-0.0059,-0.0059,-0.0059,-0.0059,-0.0001,0.0001,0.0003,0.001,0,0,0.001,0.001,0,0,0,0,0,0,0,0,-0.0131,-0.0129,-0.0112,-0.011,-0.0108,-0.0079,-0.0074,-0.0054,-0.0059,-0.0077,-0.0059,-0.0058,-0.0025,-0.0021,-0.0014,0.0013,0.0015,0.001,0.0011,0.0012,0.0013,0,0,0,0,0,0,0,-0.0132,-0.013,-0.0112,-0.0112,-0.0109,-0.0092,-0.0089,-0.007,-0.0053,-0.0076,-0.0074,-0.0069,-0.0023,-0.0016,-0.0012,0.0016,0.001,0.0012,0.0013,0.0014,0.0044,0.0044,0,0,0,0,0,0,-0.0139,-0.0132,-0.0114,-0.0111,-0.0119,-0.0092,-0.0089,-0.0088,-0.0053,-0.0048,-0.007,-0.0068,-0.002,-0.0015,-0.001,-0.0011,0.0012,0.0014,0.0015,0.0045,0.0044,0.0044,0,0,0,0,0,0,-0.014,-0.0138,-0.0115,-0.012,-0.0116,-0.0092,-0.0092,-0.0088,-0.0083,-0.0049,-0.0043,-0.007,-0.0019,-0.0013,0.0,-0.0008,0.0015,0.0017,0.0045,0.0045,0.0044,-0.0006,0,0,0,0,0,0,-0.0141,-0.0139,-0.0145,-0.0121,-0.0116,-0.0112,-0.0092,-0.0087,-0.0081,-0.0079,-0.0048,-0.0042,-0.0018,-0.0003,0.0002,-0.0005,0.0018,0.0046,0.0045,0.0044,-0.0003,-0.0008,-0.0012,0,0,0,0,0,-0.0142,-0.0151,-0.0146,-0.0143,-0.0124,-0.0112,-0.0108,-0.009,-0.0082,-0.0084,-0.0063,-0.0043,-0.0004,-0.0002,0.0005,-0.0002,0.0046,0.0045,0.0044,-0.0002,-0.0007,-0.0012,0,0,0,0,0,0,-0.0164,-0.0148,-0.0142,-0.0146,-0.0133,-0.0108,-0.0109,-0.0096,-0.0081,-0.0081,-0.0047,-0.004,-0.0032,-0.0011,-0.0009,0.0004,0.0024,0.0024,-0.0013,-0.0018,-0.0022,-0.0026,0.002,0,0,0,0,0,-0.0172,-0.0176,-0.0156,-0.0161,-0.0157,-0.0135,-0.0129,-0.0117,-0.0099,-0.0093,-0.007,-0.0048,-0.003,-0.002,-0.0001,0.0006,0.0036,0.0006,0.0002,-0.0002,-0.0001,0.0035,0.0034,0.0041,0.0041,0.0041,0,0,-0.0183,-0.0175,-0.0177,-0.0166,-0.0156,-0.0157,-0.0131,-0.0128,-0.0128,-0.0089,-0.0085,-0.0062,-0.0032,-0.0024,-0.0018,-0.0008,0.0011,-0.0003,-0.0006,-0.0004,0.0034,0.0033,0.0033,0.004,0.004,0.004,0,0,-0.0206,-0.0199,-0.0211,-0.0204,-0.0193,-0.0179,-0.0181,-0.016,-0.0151,-0.0144,-0.0116,-0.0098,-0.0074,-0.0051,-0.0036,-0.0052,-0.0013,-0.0048,-0.0071,-0.0036,-0.0037,-0.0036,-0.0001,0.0003,-0.005,-0.005,-0.005,0,-0.022,-0.0231,-0.0212,-0.0222,-0.0222,-0.0192,-0.0205,-0.0191,-0.0169,-0.0162,-0.0152,-0.0109,-0.0086,-0.0066,-0.0073,-0.006,-0.0034,-0.0056,-0.0042,-0.0041,-0.0039,-0.0004,0.0001,-0.0052,-0.0052,-0.0052,-0.0051,0,-0.0248,-0.0261,-0.0268,-0.027,-0.0268,-0.0273,-0.0253,-0.0247,-0.0232,-0.0213,-0.0194,-0.0157,-0.013,-0.0121,-0.0102,-0.0084,-0.0065,-0.0052,-0.003,-0.0043,-0.0004,0.0002,-0.0056,-0.0055,-0.0054,-0.0053,0,0,-0.0271,-0.0286,-0.029,-0.0305,-0.0295,-0.0297,-0.0297,-0.0286,-0.0285,-0.0257,-0.0248,-0.0214,-0.0187,-0.0168,-0.0137,-0.0106,-0.0077,-0.008,-0.0077,-0.0047,0.0001,0.0017,0.0026,-0.0061,-0.006,-0.006,0.0024,0,-0.03,-0.0335,-0.033,-0.0363,-0.0378,-0.0357,-0.0359,-0.0344,-0.0322,-0.0305,-0.0257,-0.0238,-0.0206,-0.0194,-0.0159,-0.0096,-0.0063,-0.0101,0.0011,0.0014,0.003,0.0033,-0.0057,0.0029,0.003,0.0031,0.0032,0,-0.0329,-0.0348,-0.0389,-0.0412,-0.0416,-0.043,-0.0428,-0.0425,-0.0388,-0.037,-0.0334,-0.0291,-0.024,-0.0214,-0.011,-0.0135,-0.0075,-0.0023,-0.0019,0.0019,0.0042,0.0047,0.0043,0.0042,0.0042,0.0041,0.004,0,-0.0355,-0.0391,-0.0427,-0.0435,-0.0451,-0.0466,-0.0471,-0.0448,-0.0447,-0.0409,-0.0396,-0.0327,-0.029,-0.0206,-0.0097,-0.0104,0.0024,0.0029,0.0103,0.0105,0.0087,0.0086,0.01,0.01,0.01,0.01,0.01,0,-0.0383,-0.0414,-0.0448,-0.0468,-0.0511,-0.0506,-0.0533,-0.0524,-0.0504,-0.0496,-0.0434,-0.0403,-0.0286,-0.0195,-0.0103,0.0024,0.0023,0.0104,0.0129,0.0064,0.0059,0.0092,0.009,0.0103,0.0102,0.0102,0.0101,0,-0.0404,-0.0426,-0.0472,-0.0508,-0.0528,-0.0556,-0.0587,-0.0595,-0.0571,-0.0557,-0.0546,-0.0455,-0.0335,-0.0206,-0.0058,0.0017,0.0135,0.0179,0.0106,0.0125,0.0193,0.0187,0.0265,0.0266,0.0267,0.0268,0.0269,0,-0.0414,-0.0441,-0.0508,-0.0544,-0.0568,-0.0611,-0.0638,-0.0635,-0.0635,-0.0582,-0.0571,-0.0461,-0.0383,-0.0157,-0.0031,0.0155,0.0178,0.0237,0.0209,0.0194,0.021,0.0203,0.0196,0.027,0.0271,0.0271,0.0271,0,-0.0429,-0.0458,-0.0496,-0.0576,-0.0625,-0.067,-0.0705,-0.0709,-0.0684,-0.0665,-0.0575,-0.0453,-0.0313,-0.0149,0.0003,0.0131,0.0196,0.0248,0.0246,0.0221,0.0202,0.0215,0.0207,0.0275,0.0274,0.0274,0.0274,0,-0.0437,-0.0471,-0.053,-0.0595,-0.0662,-0.0706,-0.0724,-0.0712,-0.0704,-0.0634,-0.0605,-0.0451,-0.0362,-0.016,-0.0024,0.011,0.0135,0.0167,0.017,0.0167,0.0112,0.0072,0.0131,0,0,0,0,0,-0.0437,-0.048,-0.0547,-0.0614,-0.0679,-0.0718,-0.0755,-0.0756,-0.0732,-0.0669,-0.0631,-0.0495,-0.0277,-0.0187,-0.0049,-0.0017,0.0146,0.0147,0.0181,0.0296,0.0292,0.0246,0,0,0,0,0,0,-0.0439,-0.0501,-0.0541,-0.0613,-0.0662,-0.0726,-0.0753,-0.0741,-0.0696,-0.0654,-0.0538,-0.0465,-0.0258,-0.0351,-0.0046,-0.0006,0.0033,0.025,0.0253,0.0299,0.0295,0.0291,0.0242,0,0,0,0,0]}]]